• în România
  • Lista ţărilor
  • Pe 7 zile
  • Temperatura apei
  • Hartă satelitară
  • Meteo pe hartă
  • Widget-uri
  • user-avatar
    Intrare

    Meteo pe oră la Wiktoria

    Astăzi, 27 Aprilie, Joi

    Timp Temperatura Precipitaţii Vânt Presiune Umiditate
    00:00 +7°C° 0 mm 2 m/s 752 mmHg 81%
    01:00 +7°C° 0 mm 2 m/s 752 mmHg 82%
    02:00 +7°C° 0 mm 2 m/s 753 mmHg 83%
    03:00 +7°C° 0 mm 2 m/s 753 mmHg 84%
    04:00 +7°C° 0 mm 2 m/s 753 mmHg 85%
    05:00 +8°C° 0 mm 1 m/s 753 mmHg 86%
    06:00 +7°C° 0 mm 1 m/s 754 mmHg 87%
    07:00 +7°C° 0 mm 1 m/s 754 mmHg 87%
    08:00 +8°C° 0 mm 2 m/s 754 mmHg 80%
    09:00 +10°C° 0 mm 2 m/s 754 mmHg 72%
    10:00 +11°C° 0 mm 3 m/s 755 mmHg 64%
    11:00 +12°C° 0 mm 3 m/s 755 mmHg 61%
    12:00 +13°C° 0 mm 3 m/s 754 mmHg 57%
    13:00 +14°C° 0 mm 3 m/s 754 mmHg 53%
    14:00 +14°C° 0 mm 3 m/s 754 mmHg 55%
    15:00 +14°C° 0 mm 2 m/s 754 mmHg 56%
    16:00 +14°C° 0 mm 2 m/s 754 mmHg 58%
    17:00 +13°C° 0 mm 2 m/s 754 mmHg 66%
    18:00 +11°C° 0 mm 1 m/s 755 mmHg 74%
    19:00 +9°C° 0 mm 1 m/s 755 mmHg 82%
    20:00 +9°C° 0 mm 1 m/s 755 mmHg 85%
    21:00 +9°C° 0 mm 1 m/s 755 mmHg 87%
    22:00 +8°C° 0 mm 1 m/s 756 mmHg 90%
    23:00 +8°C° 0 mm 1 m/s 756 mmHg 91%

    Mâine, 28 Aprilie, Vineri

    Timp Temperatura Precipitaţii Vânt Presiune Umiditate
    00:00 +8°C° 0 mm 1 m/s 756 mmHg 93%
    01:00 +7°C° 0 mm 1 m/s 756 mmHg 95%
    02:00 +7°C° 0 mm 1 m/s 756 mmHg 96%
    03:00 +7°C° 0 mm 1 m/s 756 mmHg 97%
    04:00 +7°C° 0 mm 1 m/s 755 mmHg 98%
    05:00 +6°C° 0 mm 0 m/s 756 mmHg 98%
    06:00 +6°C° 0 mm 0 m/s 756 mmHg 99%
    07:00 +6°C° 0 mm 0 m/s 756 mmHg 99%
    08:00 +9°C° 0 mm 1 m/s 756 mmHg 90%
    09:00 +12°C° 0 mm 1 m/s 757 mmHg 81%
    10:00 +15°C° 0 mm 1 m/s 757 mmHg 72%
    11:00 +15°C° 0 mm 1 m/s 756 mmHg 70%
    12:00 +16°C° 0 mm 1 m/s 756 mmHg 69%
    13:00 +18°C° 0 mm 1 m/s 756 mmHg 67%
    14:00 +18°C° 0 mm 1 m/s 755 mmHg 70%
    15:00 +18°C° 0 mm 1 m/s 755 mmHg 73%
    16:00 +16°C° 0 mm 1 m/s 755 mmHg 76%
    17:00 +15°C° 0 mm 1 m/s 755 mmHg 82%
    18:00 +14°C° 0 mm 1 m/s 755 mmHg 88%
    19:00 +12°C° 0 mm 1 m/s 756 mmHg 94%
    20:00 +12°C° 0 mm 1 m/s 756 mmHg 94%
    21:00 +12°C° 0 mm 1 m/s 756 mmHg 94%
    22:00 +13°C° 0 mm 1 m/s 756 mmHg 94%
    23:00 +12°C° 0 mm 1 m/s 756 mmHg 95%

    Poimâine, 29 Aprilie, Sâmbătă

    Timp Temperatura Precipitaţii Vânt Presiune Umiditate
    00:00 +11°C° 0 mm 1 m/s 756 mmHg 97%
    01:00 +11°C° 0 mm 1 m/s 755 mmHg 99%
    02:00 +11°C° 0 mm 1 m/s 755 mmHg 98%
    03:00 +11°C° 0 mm 1 m/s 755 mmHg 96%
    04:00 +12°C° 0 mm 1 m/s 755 mmHg 95%
    05:00 +11°C° 0 mm 1 m/s 755 mmHg 96%
    06:00 +11°C° 0 mm 1 m/s 755 mmHg 97%
    07:00 +11°C° 0 mm 1 m/s 756 mmHg 98%
    08:00 +12°C° 0 mm 1 m/s 756 mmHg 92%
    09:00 +14°C° 0 mm 1 m/s 756 mmHg 87%
    10:00 +15°C° 0 mm 1 m/s 756 mmHg 82%
    11:00 +16°C° 0 mm 1 m/s 756 mmHg 76%
    12:00 +19°C° 0 mm 1 m/s 756 mmHg 70%
    13:00 +20°C° 0 mm 1 m/s 755 mmHg 63%
    14:00 +20°C° 0 mm 1 m/s 755 mmHg 64%
    15:00 +20°C° 0 mm 1 m/s 755 mmHg 64%
    16:00 +20°C° 0 mm 1 m/s 755 mmHg 65%
    17:00 +19°C° 0 mm 1 m/s 755 mmHg 71%
    18:00 +16°C° 0 mm 1 m/s 755 mmHg 78%
    19:00 +15°C° 0 mm 1 m/s 756 mmHg 85%
    20:00 +14°C° 0 mm 1 m/s 756 mmHg 88%
    21:00 +13°C° 0 mm 1 m/s 756 mmHg 91%
    22:00 +13°C° 0 mm 1 m/s 756 mmHg 93%
    23:00 +12°C° 0 mm 1 m/s 756 mmHg 93%

    30 Aprilie, Duminică

    Timp Temperatura Precipitaţii Vânt Presiune Umiditate
    00:00 +12°C° 0 mm 1 m/s 756 mmHg 93%
    01:00 +12°C° 0 mm 1 m/s 756 mmHg 93%
    02:00 +11°C° 0 mm 1 m/s 756 mmHg 94%
    03:00 +11°C° 0 mm 1 m/s 755 mmHg 96%
    04:00 +10°C° 0 mm 1 m/s 755 mmHg 97%
    05:00 +10°C° 0 mm 1 m/s 755 mmHg 97%
    06:00 +9°C° 0 mm 1 m/s 755 mmHg 98%
    07:00 +9°C° 0 mm 1 m/s 755 mmHg 98%
    08:00 +11°C° 0 mm 1 m/s 756 mmHg 87%
    09:00 +13°C° 0 mm 0 m/s 756 mmHg 75%
    10:00 +15°C° 0 mm 0 m/s 756 mmHg 64%
    11:00 +16°C° 0 mm 0 m/s 755 mmHg 58%
    12:00 +19°C° 0 mm 1 m/s 755 mmHg 53%
    13:00 +20°C° 0 mm 1 m/s 754 mmHg 47%
    14:00 +20°C° 0 mm 1 m/s 754 mmHg 49%
    15:00 +20°C° 0 mm 1 m/s 753 mmHg 50%
    16:00 +20°C° 0 mm 1 m/s 753 mmHg 51%
    17:00 +16°C° 0 mm 1 m/s 753 mmHg 60%
    18:00 +14°C° 0 mm 1 m/s 753 mmHg 70%
    19:00 +12°C° 0 mm 1 m/s 753 mmHg 79%
    20:00 +11°C° 0 mm 1 m/s 753 mmHg 83%
    21:00 +11°C° 0 mm 1 m/s 753 mmHg 87%
    22:00 +10°C° 0 mm 1 m/s 753 mmHg 91%
    23:00 +8°C° 0 mm 0 m/s 752 mmHg 94%

    1 Mai, Luni

    Timp Temperatura Precipitaţii Vânt Presiune Umiditate
    00:00 +8°C° 0 mm 0 m/s 752 mmHg 96%
    01:00 +7°C° 0 mm 0 m/s 751 mmHg 98%
    02:00 +7°C° 0 mm 0 m/s 751 mmHg 97%
    03:00 +8°C° 0 mm 0 m/s 751 mmHg 96%
    04:00 +9°C° 0 mm 0 m/s 750 mmHg 94%
    05:00 +9°C° 0 mm 1 m/s 750 mmHg 95%
    06:00 +9°C° 0 mm 1 m/s 750 mmHg 95%
    07:00 +9°C° 0 mm 1 m/s 750 mmHg 96%
    08:00 +11°C° 0 mm 1 m/s 750 mmHg 87%
    09:00 +13°C° 0 mm 1 m/s 750 mmHg 79%
    10:00 +15°C° 0 mm 1 m/s 750 mmHg 70%
    11:00 +16°C° 0 mm 1 m/s 749 mmHg 69%
    12:00 +16°C° 0 mm 1 m/s 748 mmHg 68%
    13:00 +18°C° 0 mm 1 m/s 747 mmHg 67%
    14:00 +18°C° 0 mm 1 m/s 747 mmHg 66%
    15:00 +18°C° 0 mm 1 m/s 746 mmHg 65%
    16:00 +19°C° 0 mm 1 m/s 746 mmHg 64%
    17:00 +16°C° 0 mm 1 m/s 746 mmHg 69%
    18:00 +15°C° 0 mm 1 m/s 746 mmHg 75%
    19:00 +14°C° 0 mm 1 m/s 746 mmHg 81%
    20:00 +14°C° 0,2 mm 1 m/s 746 mmHg 82%
    21:00 +14°C° 0,2 mm 1 m/s 746 mmHg 83%
    22:00 +14°C° 0,2 mm 1 m/s 746 mmHg 84%
    23:00 +14°C° 0,7 mm 1 m/s 745 mmHg 86%

    2 Mai, Marţi

    Timp Temperatura Precipitaţii Vânt Presiune Umiditate
    00:00 +13°C° 0,7 mm 1 m/s 745 mmHg 89%
    01:00 +13°C° 0,7 mm 1 m/s 745 mmHg 92%
    02:00 +13°C° 0,9 mm 1 m/s 745 mmHg 92%
    03:00 +12°C° 0,9 mm 2 m/s 745 mmHg 93%
    04:00 +10°C° 0,9 mm 2 m/s 745 mmHg 94%
    05:00 +9°C° 0 mm 2 m/s 746 mmHg 95%
    06:00 +9°C° 0 mm 1 m/s 746 mmHg 95%
    07:00 +8°C° 0 mm 1 m/s 747 mmHg 96%
    08:00 +8°C° 0 mm 2 m/s 747 mmHg 88%
    09:00 +9°C° 0 mm 2 m/s 747 mmHg 81%
    10:00 +10°C° 0 mm 2 m/s 748 mmHg 73%
    11:00 +12°C° 0 mm 2 m/s 747 mmHg 65%
    12:00 +13°C° 0 mm 2 m/s 747 mmHg 57%
    13:00 +14°C° 0 mm 2 m/s 747 mmHg 50%
    14:00 +13°C° 0,1 mm 2 m/s 747 mmHg 52%
    15:00 +13°C° 0,1 mm 2 m/s 747 mmHg 55%
    16:00 +12°C° 0,1 mm 2 m/s 747 mmHg 58%
    17:00 +10°C° 0 mm 2 m/s 747 mmHg 64%
    18:00 +10°C° 0 mm 1 m/s 748 mmHg 70%
    19:00 +8°C° 0 mm 1 m/s 748 mmHg 76%
    20:00 +8°C° 0 mm 1 m/s 749 mmHg 77%
    21:00 +8°C° 0 mm 1 m/s 749 mmHg 78%
    22:00 +8°C° 0 mm 1 m/s 749 mmHg 79%
    23:00 +8°C° 0,1 mm 1 m/s 749 mmHg 81%
    Arată mai mult